Flag for U.S.A. Weather past 2 weeks in Mountain View, California, U.S.A.

Now
55 °F

Clear.


Feels Like: 55 °F
Forecast: 49 / 64 °F
Wind: No wind

Location: Moffett Field

Current Time: Dec 22, 2014 at 9:23:04 PM

Latest Report: Dec 22, 2014 at 8:56 PM


Visibility: 10 mi

Pressure: 30.21 "Hg

Humidity: 93%

Dew point: 53 °F

Location of Mountain ViewLocation

Historic Weather in Mountain View — Graph

°F

Mountain View temperature yesterday

Maximum temperature yesterday: 64 °F (at 2:56 PM)
Minimum temperature yesterday: 56 °F (at 5:56 AM)
Average temperature yesterday: 60 °F

Past Weeks' High & Low Weather Summary

 TemperatureHumidityPressure
High69 °F (Dec 8, 2:56 PM)100% (Dec 9, 3:56 AM)30.34 "Hg (Dec 9, 3:56 AM)
Low43 °F (Dec 13, 6:56 AM)53% (Dec 8, 2:56 PM)29.57 "Hg (Dec 11, 7:56 AM)
Average56 °F85%30.06 "Hg
* Reported Dec 7 6:56 PM — Dec 22 6:56 PM, Mountain View, Weather by CustomWeather, © 2014

Note: Actual official high and low records may vary slightly from our data, if they occured in-between our weather recording intervals... More about our weather records

Advertising

Mountain View weather history for previous 24 hours

 ConditionsComfort  
Time TempWeatherWind HumidityBarometerVisibility
6:56 PM
Dec 22
57 °FClear.No wind90%30.20 "Hg10 mi
5:56 PM60 °FClear.No wind80%30.20 "Hg10 mi
4:56 PM60 °FClear.3 mph78%30.20 "Hg10 mi
3:56 PM63 °FSunny.5 mph70%30.20 "Hg9 mi
2:56 PM64 °FSunny.7 mph70%30.20 "Hg10 mi
1:56 PM63 °FSunny.8 mph75%30.21 "Hg10 mi
12:56 PM62 °FSunny.7 mph75%30.22 "Hg10 mi
11:56 AM62 °FPassing clouds.6 mph78%30.26 "Hg10 mi
10:56 AM60 °FOvercast.9 mph83%30.29 "Hg10 mi
9:56 AM57 °FFog.3 mph96%30.31 "Hg1 mi
8:56 AM58 °FBroken clouds.No wind90%30.29 "Hg10 mi
7:56 AM55 °FPassing clouds.No wind96%30.28 "Hg10 mi
6:56 AM57 °FFog.No wind96%30.28 "Hg6 mi
5:56 AM57 °FFog.No wind93%30.27 "Hg1 mi
4:56 AM55 °FPassing clouds.3 mph93%30.28 "Hg10 mi
3:56 AM58 °FOvercast.No wind90%30.27 "Hg10 mi
2:56 AM59 °FOvercast.No wind87%30.29 "Hg10 mi
1:56 AM59 °FOvercast.No wind87%30.29 "Hg10 mi
12:56 AM59 °FOvercast.3 mph87%30.29 "Hg10 mi
11:56 PM
Dec 21
59 °FOvercast.No wind90%30.30 "Hg10 mi
10:56 PM59 °FOvercast.No wind90%30.31 "Hg10 mi
9:56 PM59 °FMostly cloudy.5 mph93%30.31 "Hg10 mi
Weather by CustomWeather, © 2014

See weather overviewHow to use our weather pages